Back to catalog

ARIANE 42L+3 R/B

AliveGTO
NORAD 23671·ROCKET BODY·🇫🇷 France

Launched Sep 24, 1995 from Guiana Space Centre

Loading…

TLE

AgingSource: Space-Track

Epoch: Sep 14, 2026, 10:35 UTC

1 23671U 95049B   26257.44119442  .00000381  00000-0  12638-2 0  9991
2 23671   7.6697  26.2851 7210966 324.6044   4.2222  2.29733198254449

Track ARIANE 42L+3 R/B in real time with AllMySat

Download on the App Store